• In Hungary
  • List of Countries
  • For 7 days
  • Water Temperature
  • Satellite Maps
  • Weather Map
  • News
  • Weather Widgets
  • user-avatar
    Login

    Hourly Weather Kolossi

    Today, 21 July, Saturday

    Time Temperature Precipitation Wind Pressure Humidity
    00:00 +29°C° 0 mm 3 mps 744 mmHg 75%
    01:00 +28°C° 0 mm 3 mps 744 mmHg 77%
    02:00 +28°C° 0 mm 3 mps 744 mmHg 79%
    03:00 +28°C° 0 mm 3 mps 744 mmHg 79%
    04:00 +27°C° 0 mm 3 mps 744 mmHg 80%
    05:00 +27°C° 0 mm 3 mps 744 mmHg 81%
    06:00 +29°C° 0 mm 3 mps 744 mmHg 70%
    07:00 +30°C° 0 mm 3 mps 745 mmHg 59%
    08:00 +32°C° 0 mm 2 mps 745 mmHg 48%
    09:00 +34°C° 0 mm 3 mps 745 mmHg 45%
    10:00 +36°C° 0 mm 3 mps 745 mmHg 41%
    11:00 +37°C° 0 mm 4 mps 745 mmHg 38%
    12:00 +37°C° 0 mm 4 mps 745 mmHg 39%
    13:00 +37°C° 0 mm 5 mps 745 mmHg 40%
    14:00 +37°C° 0 mm 5 mps 745 mmHg 41%
    15:00 +37°C° 0.1 mm 5 mps 745 mmHg 43%
    16:00 +36°C° 0.1 mm 5 mps 744 mmHg 46%
    17:00 +35°C° 0.1 mm 5 mps 744 mmHg 48%
    18:00 +34°C° 0.1 mm 5 mps 744 mmHg 52%
    19:00 +34°C° 0.1 mm 5 mps 744 mmHg 56%
    20:00 +33°C° 0.1 mm 5 mps 744 mmHg 60%
    21:00 +32°C° 0 mm 4 mps 744 mmHg 62%
    22:00 +32°C° 0 mm 4 mps 744 mmHg 63%
    23:00 +30°C° 0 mm 4 mps 744 mmHg 64%

    Tomorrow, 22 July, Sunday

    Time Temperature Precipitation Wind Pressure Humidity
    00:00 +30°C° 0 mm 4 mps 744 mmHg 63%
    01:00 +30°C° 0 mm 4 mps 744 mmHg 62%
    02:00 +30°C° 0 mm 4 mps 744 mmHg 61%
    03:00 +29°C° 0 mm 3 mps 743 mmHg 60%
    04:00 +29°C° 0 mm 3 mps 743 mmHg 59%
    05:00 +29°C° 0 mm 3 mps 743 mmHg 58%
    06:00 +31°C° 0 mm 3 mps 743 mmHg 51%
    07:00 +34°C° 0 mm 3 mps 744 mmHg 45%
    08:00 +36°C° 0 mm 3 mps 744 mmHg 38%
    09:00 +37°C° 0 mm 3 mps 744 mmHg 36%
    10:00 +38°C° 0 mm 4 mps 744 mmHg 34%
    11:00 +40°C° 0 mm 4 mps 744 mmHg 32%
    12:00 +40°C° 0 mm 5 mps 744 mmHg 32%
    13:00 +40°C° 0 mm 5 mps 743 mmHg 33%
    14:00 +41°C° 0 mm 5 mps 743 mmHg 33%
    15:00 +40°C° 0 mm 6 mps 743 mmHg 33%
    16:00 +40°C° 0 mm 6 mps 743 mmHg 33%
    17:00 +39°C° 0 mm 6 mps 742 mmHg 34%
    18:00 +37°C° 0 mm 5 mps 743 mmHg 38%
    19:00 +36°C° 0 mm 5 mps 743 mmHg 41%
    20:00 +34°C° 0 mm 5 mps 743 mmHg 45%
    21:00 +34°C° 0 mm 5 mps 743 mmHg 46%
    22:00 +33°C° 0 mm 4 mps 743 mmHg 48%
    23:00 +33°C° 0 mm 4 mps 743 mmHg 49%

    Day after tomorrow, 23 July, Monday

    Time Temperature Precipitation Wind Pressure Humidity
    00:00 +33°C° 0 mm 4 mps 743 mmHg 48%
    01:00 +33°C° 0 mm 3 mps 742 mmHg 47%
    02:00 +31°C° 0 mm 3 mps 742 mmHg 46%
    03:00 +31°C° 0 mm 3 mps 742 mmHg 44%
    04:00 +31°C° 0 mm 3 mps 742 mmHg 43%
    05:00 +31°C° 0 mm 3 mps 742 mmHg 41%
    06:00 +32°C° 0 mm 2 mps 742 mmHg 38%
    07:00 +35°C° 0 mm 2 mps 742 mmHg 35%
    08:00 +37°C° 0 mm 2 mps 742 mmHg 31%
    09:00 +38°C° 0 mm 2 mps 743 mmHg 30%
    10:00 +39°C° 0 mm 2 mps 743 mmHg 29%
    11:00 +42°C° 0 mm 3 mps 743 mmHg 27%
    12:00 +40°C° 0 mm 3 mps 743 mmHg 28%
    13:00 +40°C° 0 mm 3 mps 743 mmHg 29%
    14:00 +41°C° 0 mm 4 mps 742 mmHg 30%
    15:00 +41°C° 0 mm 4 mps 742 mmHg 30%
    16:00 +40°C° 0 mm 4 mps 742 mmHg 30%
    17:00 +40°C° 0 mm 4 mps 742 mmHg 30%
    18:00 +37°C° 0 mm 4 mps 742 mmHg 35%
    19:00 +36°C° 0 mm 4 mps 742 mmHg 40%
    20:00 +34°C° 0 mm 4 mps 743 mmHg 45%
    21:00 +34°C° 0 mm 3 mps 743 mmHg 44%
    22:00 +33°C° 0 mm 3 mps 743 mmHg 44%
    23:00 +31°C° 0 mm 3 mps 743 mmHg 44%

    24 July, Tuesday

    Time Temperature Precipitation Wind Pressure Humidity
    00:00 +31°C° 0 mm 3 mps 742 mmHg 42%
    01:00 +31°C° 0 mm 3 mps 742 mmHg 40%
    02:00 +31°C° 0 mm 3 mps 742 mmHg 37%
    03:00 +30°C° 0 mm 2 mps 742 mmHg 35%
    04:00 +30°C° 0 mm 2 mps 742 mmHg 32%
    05:00 +30°C° 0 mm 1 mps 742 mmHg 29%
    06:00 +32°C° 0 mm 2 mps 742 mmHg 27%
    07:00 +35°C° 0 mm 2 mps 743 mmHg 25%
    08:00 +38°C° 0 mm 2 mps 743 mmHg 22%
    09:00 +39°C° 0 mm 2 mps 743 mmHg 23%
    10:00 +40°C° 0 mm 3 mps 743 mmHg 23%
    11:00 +41°C° 0 mm 4 mps 744 mmHg 24%
    12:00 +41°C° 0 mm 4 mps 744 mmHg 25%
    13:00 +42°C° 0 mm 4 mps 743 mmHg 27%
    14:00 +42°C° 0 mm 5 mps 743 mmHg 28%
    15:00 +41°C° 0 mm 5 mps 743 mmHg 29%
    16:00 +41°C° 0 mm 5 mps 743 mmHg 29%
    17:00 +40°C° 0 mm 6 mps 743 mmHg 30%
    18:00 +39°C° 0 mm 5 mps 743 mmHg 34%
    19:00 +36°C° 0 mm 5 mps 744 mmHg 37%
    20:00 +35°C° 0 mm 4 mps 744 mmHg 41%
    21:00 +34°C° 0 mm 4 mps 744 mmHg 43%
    22:00 +34°C° 0 mm 4 mps 744 mmHg 45%
    23:00 +33°C° 0 mm 4 mps 744 mmHg 47%

    25 July, Wednesday

    Time Temperature Precipitation Wind Pressure Humidity
    00:00 +32°C° 0 mm 4 mps 744 mmHg 48%
    01:00 +31°C° 0 mm 3 mps 743 mmHg 49%
    02:00 +31°C° 0 mm 3 mps 743 mmHg 49%
    03:00 +30°C° 0 mm 3 mps 743 mmHg 50%
    04:00 +30°C° 0 mm 3 mps 743 mmHg 50%
    05:00 +30°C° 0 mm 3 mps 744 mmHg 50%
    06:00 +31°C° 0 mm 3 mps 744 mmHg 45%
    07:00 +34°C° 0 mm 3 mps 744 mmHg 40%
    08:00 +36°C° 0 mm 3 mps 744 mmHg 35%
    09:00 +37°C° 0 mm 4 mps 744 mmHg 33%
    10:00 +38°C° 0 mm 4 mps 745 mmHg 30%
    11:00 +40°C° 0 mm 5 mps 745 mmHg 28%
    12:00 +40°C° 0 mm 5 mps 744 mmHg 27%
    13:00 +40°C° 0 mm 5 mps 744 mmHg 27%
    14:00 +40°C° 0 mm 6 mps 744 mmHg 26%
    15:00 +40°C° 0 mm 6 mps 744 mmHg 28%
    16:00 +39°C° 0 mm 5 mps 744 mmHg 29%
    17:00 +37°C° 0 mm 5 mps 744 mmHg 31%
    18:00 +35°C° 0 mm 5 mps 744 mmHg 39%
    19:00 +34°C° 0 mm 5 mps 744 mmHg 47%
    20:00 +32°C° 0 mm 4 mps 744 mmHg 55%
    21:00 +30°C° 0 mm 4 mps 744 mmHg 60%
    22:00 +30°C° 0 mm 4 mps 744 mmHg 66%
    23:00 +29°C° 0 mm 4 mps 744 mmHg 71%

    26 July, Thursday

    Time Temperature Precipitation Wind Pressure Humidity
    00:00 +28°C° 0 mm 4 mps 744 mmHg 73%
    01:00 +28°C° 0 mm 4 mps 744 mmHg 75%
    02:00 +28°C° 0 mm 4 mps 744 mmHg 77%
    03:00 +27°C° 0 mm 4 mps 744 mmHg 78%
    04:00 +27°C° 0 mm 3 mps 744 mmHg 80%
    05:00 +26°C° 0 mm 3 mps 744 mmHg 81%
    06:00 +28°C° 0 mm 3 mps 744 mmHg 72%
    07:00 +30°C° 0 mm 3 mps 744 mmHg 63%
    08:00 +31°C° 0 mm 3 mps 745 mmHg 54%
    09:00 +34°C° 0 mm 4 mps 745 mmHg 49%
    10:00 +35°C° 0 mm 4 mps 745 mmHg 45%
    11:00 +36°C° 0 mm 5 mps 745 mmHg 41%
    12:00 +36°C° 0 mm 5 mps 745 mmHg 41%
    13:00 +36°C° 0 mm 6 mps 745 mmHg 42%
    14:00 +36°C° 0 mm 6 mps 745 mmHg 43%
    15:00 +36°C° 0 mm 6 mps 745 mmHg 45%
    16:00 +35°C° 0 mm 6 mps 744 mmHg 48%
    17:00 +35°C° 0 mm 6 mps 744 mmHg 50%
    18:00 +33°C° 0 mm 6 mps 744 mmHg 56%
    19:00 +32°C° 0 mm 6 mps 745 mmHg 62%
    20:00 +30°C° 0 mm 5 mps 745 mmHg 68%
    21:00 +30°C° 0 mm 5 mps 745 mmHg 71%
    22:00 +29°C° 0 mm 5 mps 745 mmHg 74%
    23:00 +29°C° 0 mm 5 mps 745 mmHg 77%
    Show more